Regional Weather Roundup
Issued by NWS

Home | Current Version | Previous Version | Text Only | Print | Product List | Glossary Off
Versions: 1 2 3 4 5 6 7 8 9 10 11 12 13 14 15 16 17 18 19 20 21 22 23 24 25 26 27 28 29 30 31 32 33 34 35 36 37 38 39 40 41 42 43 44 45 46 47 48 49 50

000
ASUS43 KIND 032009
RWRIN

WEATHER ROUNDUP FOR INDIANA
NATIONAL WEATHER SERVICE INDIANAPOLIS IN
400 PM EDT THU SEP 03 2015

NOTE: "FAIR" INDICATES FEW OR NO CLOUDS BELOW 12,000 FEET WITH NO
SIGNIFICANT WEATHER AND/OR OBSTRUCTIONS TO VISIBILITY.

* - STATION DOES NOT REPORT WEATHER SUCH AS PRECIPITATION OR FOG.

+ - STATION NOT QUALITY CONTROLLED BY THE NATIONAL WEATHER SERVICE.
    USE DATA WITH CAUTION...ESPECIALLY DEWPOINT AND RELATIVE
    HUMIDITY OBSERVATIONS.

INZ001>003-010>013-019-020-032100-
NORTHWEST INDIANA

CITY           SKY/WX    TMP DP  RH WIND       PRES   REMARKS
GARY /AIRPORT/ PTSUNNY   91  63  38 SW12      29.91F
KNOX *+        MOSUNNY   88  64  45 W12       29.92F
LA PORTE +     SUNNY     91  70  50 W12       29.93F HX  96
MICHIGAN CITY+ MOSUNNY   88  70  55 W9        29.92
MONTICELLO +   MOSUNNY   88  70  54 SW9       29.93F
RENSSELAER +   MOSUNNY   90  68  48 SW10      29.93F
VALPARAISO     MOSUNNY   89  70  53 SW15G21   29.93F

$$

LMZ046-743>745-032100-
SOUTHERN LAKE MICHIGAN

STATION/POSITION TIME  TEMP    WIND        PRES    WAVE
                       AIR SEA DIR/SP/G            HT
                 (UTC) (F)     (DEG/KT/KT) (MB)    (FT)
BURNS HARBOR     1900   86     270/ 11/ 14 1013.5F
MICHIGAN CITY    1900   81     230/  4/  4   N/A
5NW MICH CITY    2000   83 76  260/  4/  4   N/A     1

$$

INZ004-005-014>016-021>024-032100-
NORTH CENTRAL INDIANA

CITY           SKY/WX    TMP DP  RH WIND       PRES   REMARKS
GOSHEN         MOSUNNY   89  67  47 SW16      29.92F
LOGANSPORT +   MOSUNNY   90  54  29 W9        29.95F
PERU/GRISSOM   MOSUNNY   91  66  44 W15       29.94F
ROCHESTER +    MOSUNNY   93  63  36 W10G17    29.94F
SOUTH BEND     MOSUNNY   90  67  46 W15       29.92F
WARSAW +       SUNNY     90  68  48 W10       29.93F

$$

INZ006>009-017-018-025>027-032100-
NORTHEAST INDIANA

CITY           SKY/WX    TMP DP  RH WIND       PRES   REMARKS
ANGOLA *+      SUNNY     88  72  58 W7        29.94F
AUBURN +       MOSUNNY   90  63  40 SW10      29.95F
FORT WAYNE     MOSUNNY   89  67  47 W15G21    29.95F
HUNTINGTON +   PTSUNNY   89  61  38 W10G18    29.94F

$$

INZ028-029-035-036-043>045-051>053-032100-
WEST CENTRAL INDIANA

CITY           SKY/WX    TMP DP  RH WIND       PRES   REMARKS
CRAWFORDSVL +  SUNNY     87  60  39 SW6       29.96F
GREENCASTLE +  MOSUNNY   86  63  45 S3        29.98F
LAFAYETTE      MOSUNNY   89  65  44 W10G17    29.94F
TERRE HAUTE    MOSUNNY   90  66  45 SW8       29.96F

$$

INZ030>032-037>040-046>048-054>057-064-065-032100-
CENTRAL INDIANA

CITY           SKY/WX    TMP DP  RH WIND       PRES   REMARKS
ANDERSON       MOSUNNY   86  57  37 W6        29.98F
FISHERS *+     PTSUNNY   86  70  58 W9        29.96F
FRANKFORT +    SUNNY     90  69  51 SW8       29.98F
INDIANAPOLIS   MOSUNNY   88  64  44 SW8       29.96F
-EAGLE CREEK   MOSUNNY   89  65  44 SW7       29.95F
KOKOMO *+      MOSUNNY   90  66  45 W8G21     29.95F
MARION +       MOSUNNY   87  53  31 SW12G17   29.96F
MT COMFORT *+  SUNNY     90  50  25 SW9       29.97F
SHELBYVILLE    MOSUNNY   91  66  43 SW10      29.96F
ZIONSVILLE +   MOSUNNY   90  64  42 SW7       29.97F

$$

INZ033-034-041-042-049-050-058-059-032100-
EAST CENTRAL INDIANA

CITY           SKY/WX    TMP DP  RH WIND       PRES   REMARKS
MUNCIE         SUNNY     87  66  49 W9G17     29.96F

$$

INZ060-061-067>069-081>083-085>088-032100-
SOUTHWEST INDIANA

CITY           SKY/WX    TMP DP  RH WIND       PRES   REMARKS
EVANSVILLE     MOSUNNY   91  65  41 VRB3      29.97F
HUNTINGBURG *+ SUNNY     91  64  40 SW3       29.98F
WASHINGTON +   MOSUNNY   91  55  29 W7        29.96F

$$

INZ062-063-066-070>080-084-089>092-032100-
SOUTH CENTRAL AND SOUTHEAST INDIANA

CITY           SKY/WX    TMP DP  RH WIND       PRES   REMARKS
BLOOMINGTON    SUNNY     90  66  45 VRB3      29.99F
NORTH VERNON + SUNNY     90  63  40 CALM      29.98F
SEYMOUR +      SUNNY     95  63  34 SW6       29.97F HX  96

$$




USA.gov is the U.S. government's official web portal to all federal, state and local government web resources and services.